Regional Weather Roundup
Issued by NWS

Home | Current Version | Previous Version | Graphics & Text | Print | Product List | Glossary On
Versions: 1 2 3 4 5 6 7 8 9 10 11 12 13 14 15 16 17 18 19 20 21 22 23 24 25 26 27 28 29 30 31 32 33 34 35 36 37 38 39 40 41 42 43 44 45 46 47 48 49 50
000
ASUS43 KLSX 211907
RWRMO

WEATHER SUMMARY FOR MISSOURI
NATIONAL WEATHER SERVICE SPRINGFIELD MO
200 PM CDT SUN SEP 21 2014

NOTE: "FAIR" INDICATES FEW OR NO CLOUDS BELOW 12,000 FEET WITH NO
       SIGNIFICANT WEATHER AND/OR OBSTRUCTIONS TO VISIBILITY.
       CURRENT SKY AND/OR WEATHER CONDITIONS ARE NOT AVAILABLE FOR
       CHILLICOTHE AND FARMINGTON.

MOZ001>031-035>038-043-044-053-054-212000-
...NORTHERN AND WESTERN MISSOURI...

CITY           SKY/WX    TMP DP  RH WIND       PRES   REMARKS
KANSAS CTY INT MOSUNNY   75  49  39 N13G21    30.17F
KANSAS C DTWN  SUNNY     77  48  35 N12G18    30.16S
LEE`S SUMMIT   SUNNY     75  48  38 N16       30.17F
ST JOSEPH      SUNNY     75  46  35 N18G25    30.17F
CHILLICOTHE      N/A     74  50  42 N10G20    30.15S
KIRKSVILLE     MOSUNNY   71  48  43 NW17G23   30.12F

$$
MOZ066>068-077>081-088>096-101>105-212000-
...SOUTHWEST MISSOURI...

CITY           SKY/WX    TMP DP  RH WIND       PRES   REMARKS
SPRINGFIELD    SUNNY     77  46  33 N15       30.13F
JOPLIN         SUNNY     77  48  35 N13       30.15F

$$
MOZ032>034-039>042-045>050-055>058-069>072-212000-
...CENTRAL MISSOURI...

CITY           SKY/WX    TMP DP  RH WIND       PRES   REMARKS
COLUMBIA       SUNNY     75  49  39 NW18      30.10F
JEFFERSON CITY SUNNY     78  44  29 NW20G28   30.08F
ROLLA          SUNNY     75  44  33 NW16G25   30.08F HAZE
SEDALIA        SUNNY     79  46  31 N14G25    30.13F
WHITEMAN AFB   SUNNY     76  48  37 NW15G22   30.13F
OSAGE BEACH    SUNNY     75  46  35 NW5       30.11F

$$
MOZ051-052-059>065-212000-
...EAST CENTRAL MISSOURI...

CITY           SKY/WX    TMP DP  RH WIND       PRES   REMARKS
ST LOUIS INTL  MOSUNNY   78  50  37 NW17G31   30.03F
SPIRIT OF STL  SUNNY     77  50  38 NW17G25   30.03F
ST CHARLES     SUNNY     76  48  37 NW17G25   30.03F

$$
MOZ072>076-082>087-097>100-106>115-212000-
...SOUTH CENTRAL AND SOUTHEAST MISSOURI...

CITY           SKY/WX    TMP DP  RH WIND       PRES   REMARKS
CAPE GIRARDEAU SUNNY     81  47  30 NW8G22    30.01F
FARMINGTON     SUNNY     75  45  33 NW10G16   30.07F
POPLAR BLUFF   SUNNY     83  51  33 NW13G18   30.00F
WEST PLAINS    SUNNY     79  44  28 N9        30.10F

$$


USA.gov is the U.S. government's official web portal to all federal, state and local government web resources and services.